Regional Weather Roundup
Issued by NWS Kansas City/Pleasant Hill, MO

Home | Current Version | Previous Version | Graphics & Text | Print | Product List | Glossary Off
Versions: 1 2 3 4 5 6 7 8 9 10 11 12 13 14 15 16 17 18 19 20 21 22 23 24 25 26 27 28 29 30 31 32 33 34 35 36 37 38 39 40 41 42 43 44 45 46 47 48 49 50

000
ASUS43 KEAX 281010
RWREAX

WEATHER ROUNDUP FOR EASTERN KANSAS AND NORTHWEST MISSOURI
NATIONAL WEATHER SERVICE KANSAS CITY/PLEASANT HILL MO
400 AM CST SAT FEB 28 2015

KSZ040-057-103>105-MOZ028-029-037-043-281100-
...KANSAS CITY METROPOLITAN AREA...

CITY           SKY/WX    TMP DP  RH WIND       PRES   REMARKS
K.C. INTL      PTCLDY    15   7  70 SE7       30.50F WCI   5
K.C. DOWNTOWN  CLOUDY    17   8  67 E6        30.53S WCI   9
LEES SUMMIT    CLOUDY    16   8  71 E7        30.51S WCI   6
OLATHE - IXD   CLOUDY    16   8  71 E6        30.49F WCI   7
OLATHE - OJC   CLOUDY    16   7  67 E6        30.48F WCI   7
LAWRENCE       CLOUDY    14   7  73 E5        30.51F WCI   6

$$

MOZ001>008-011>017-020>025-030>033-038>040-044>046-053-054-281100-
...NORTHERN AND CENTRAL MISSOURI...

CITY           SKY/WX    TMP DP  RH WIND       PRES   REMARKS
ST. JOSEPH     CLOUDY    15   6  67 SE8       30.53F WCI   4
MOSBY          CLOUDY    18   9  68 SE3       30.54S
WARRENSBURG    CLOUDY    19  10  68 E6        30.54S WCI  11
WHITEMAN AFB   CLOUDY    17   7  64 E8        30.52S WCI   7
CLINTON        CLOUDY    23  10  58 E5        30.54R WCI  17
SEDALIA        CLOUDY    18   6  59 E8        30.55S WCI   8
WARSAW         NOT AVBL
MARSHALL       CLOUDY    19   9  63 E6        30.57F WCI  11
CHILLICOTHE      N/A     14   5  67 SE5       30.57F WCI   6
MOBERLY        CLOUDY    14   5  67 E6        30.57F WCI   5
KIRKSVILLE     CLOUDY    11   3  70 SE8       30.57S WCI  -1

$$

MOZ041-047>049-056>058-063>065-088>090-097-281100-
...EASTERN AND SOUTHERN MISSOURI...

CITY           SKY/WX    TMP DP  RH WIND       PRES   REMARKS
ST. LOUIS INTL CLOUDY    15   4  61 E6        30.64R WCI   6
SPIRIT OF STL  CLOUDY    16   3  56 E3        30.63R
COLUMBIA       FLURRIES  16  10  77 E8        30.56F WCI   5
JEFFERSON CITY CLOUDY    18   9  68 E8        30.59F WCI   8
ROLLA          CLOUDY    18   6  59 E8        30.51F WCI   8
LEBANON        CLOUDY    19   5  53 E8        30.49S WCI   9
OSAGE BEACH    CLOUDY    21   5  49 E6        30.53S WCI  14
SPRINGFIELD    CLOUDY    20   9  62 SE7       30.47S WCI  11
BRANSON        CLOUDY    19  16  86 CALM      30.48S
NEVADA         CLOUDY    19   7  58 E5        30.51F WCI  13
JOPLIN         CLOUDY    20  12  71 E10       30.48F WCI   9
WEST PLAINS    CLOUDY    19   8  62 E7        30.52R WCI  10

$$

IAZ060-094-KSZ022-034>040-054-083-096-NEZ052-066-093-281100-
...KANSAS...SOUTHEAST NEBRASKA AND IOWA...

CITY           SKY/WX    TMP DP  RH WIND       PRES   REMARKS
TOPEKA         CLEAR     13   5  70 CALM      30.50F
MANHATTAN      MOCLDY    11   8  88 CALM      30.47F
EMPORIA        CLOUDY    16   9  74 SE8       30.45F WCI   5
CHANUTE        CLOUDY    19  11  70 E5        30.47F WCI  12
WICHITA        CLOUDY    16  11  80 SE6       30.42S WCI   7
OMAHA          CLEAR      7   0  73 S7        30.50F WCI  -5
LINCOLN        CLEAR      7   1  76 S6        30.46F WCI  -3
FALLS CITY     CLOUDY    13   5  70 SE3       30.50F
LAMONI         PTCLDY     5   0  79 E3        30.52S
DES MOINES     FAIR       3  -4  72 SE8       30.55F WCI -10

$$




USA.gov is the U.S. government's official web portal to all federal, state and local government web resources and services.